Location: Unspecified
(43.4680°N, 87.1740°E)
Time: 10:41:52
(UTC+00:00)

SJ-6B - Pass Details

Date: 17 April 2021
Orbit: 510 x 579 km, 97.6° (Epoch: 14 May)

Event Time Altitude Azimuth Distance (km) Brightness Sun altitude
Exits shadow 13:20:06 - 141° (SE) 2,405 5.6 -4.9°
Reaches altitude 10° 13:21:50 10° 132° (SE) 1,728 4.8 -5.2°
Maximum altitude 13:25:06 30° 70° (ENE) 938 3.6 -5.7°
Drops below altitude 10° 13:28:24 10° 8° (N) 1,747 5.6 -6.3°
Sets 13:30:41 0° 358° (N) 2,644 6.6 -6.7°
